Location: Misciano
(43.5000°N, 11.9500°E)
Time: 15:23:30
(UTC+00:00)

Cosmos 1763 Rocket - Pass Details

Date: 13 August 2020
Orbit: 732 x 780 km, 74.0° (Epoch: 19 September)

Event Time Altitude Azimuth Distance (km) Brightness Sun altitude
Rises 20:43:25 0° 337° (NNW) 3,275 8.0 -22.4°
Reaches altitude 10° 20:45:50 10° 334° (NNW) 2,343 7.1 -22.7°
Maximum altitude 20:51:07 67° 253° (WSW) 843 3.7 -23.3°
Enters shadow 20:52:28 48° 192° (SSW) 1,010 3.8 -23.4°
